When you browse on this site, cookies collect data to enhance your experience and personalize the content and advertising you see.
Visit our Privacy Policy to learn more. By continuing to use the site, you agree to this use of cookies and data.
  • In Romania
  • List of Countries
  • For 7 days
  • Water Temperature
  • Weather Map
  • Weather Widgets
  • user-avatar
    Login

    Hourly Weather Larne

    Today, 22 February, Saturday

    Time Temperature Precipitation Wind Pressure Humidity
    00:00 +7°C° 0 mm 12 mps 745 mmHg 87%
    01:00 +5°C° 0.5 mm 12 mps 745 mmHg 86%
    02:00 +4°C° 0.5 mm 12 mps 745 mmHg 85%
    03:00 +3°C° 0.5 mm 12 mps 745 mmHg 84%
    04:00 +2°C° 0.1 mm 12 mps 746 mmHg 84%
    05:00 0°C° 0.1 mm 12 mps 747 mmHg 83%
    06:00 0°C° 0.1 mm 12 mps 748 mmHg 83%
    07:00 0°C° 0.1 mm 12 mps 748 mmHg 81%
    08:00 0°C° 0.1 mm 12 mps 749 mmHg 80%
    09:00 -1°C° 0.1 mm 13 mps 749 mmHg 79%
    10:00 0°C° 0.1 mm 13 mps 750 mmHg 77%
    11:00 0°C° 0.1 mm 14 mps 751 mmHg 76%
    12:00 0°C° 0.1 mm 14 mps 752 mmHg 75%
    13:00 0°C° 0.1 mm 14 mps 753 mmHg 75%
    14:00 0°C° 0.1 mm 13 mps 753 mmHg 75%
    15:00 0°C° 0.1 mm 13 mps 754 mmHg 75%
    16:00 0°C° 0 mm 12 mps 754 mmHg 77%
    17:00 -1°C° 0 mm 12 mps 754 mmHg 79%
    18:00 -1°C° 0 mm 11 mps 755 mmHg 81%
    19:00 0°C° 0.1 mm 10 mps 755 mmHg 84%
    20:00 0°C° 0.1 mm 9 mps 755 mmHg 87%
    21:00 0°C° 0.1 mm 9 mps 755 mmHg 91%
    22:00 0°C° 0.2 mm 8 mps 755 mmHg 92%
    23:00 0°C° 0.2 mm 8 mps 755 mmHg 93%

    Tomorrow, 23 February, Sunday

    Time Temperature Precipitation Wind Pressure Humidity
    00:00 0°C° 0.2 mm 7 mps 755 mmHg 94%
    01:00 0°C° 0.2 mm 7 mps 754 mmHg 95%
    02:00 +1°C° 0.2 mm 6 mps 753 mmHg 96%
    03:00 +1°C° 0.2 mm 6 mps 752 mmHg 97%
    04:00 +1°C° 0.7 mm 6 mps 752 mmHg 97%
    05:00 +1°C° 0.7 mm 6 mps 751 mmHg 97%
    06:00 +1°C° 0.7 mm 6 mps 751 mmHg 97%
    07:00 0°C° 0.2 mm 7 mps 752 mmHg 94%
    08:00 0°C° 0.2 mm 8 mps 753 mmHg 90%
    09:00 0°C° 0.2 mm 9 mps 754 mmHg 86%
    10:00 0°C° 0 mm 9 mps 755 mmHg 81%
    11:00 +1°C° 0 mm 10 mps 756 mmHg 75%
    12:00 +2°C° 0 mm 11 mps 758 mmHg 69%
    13:00 +2°C° 0 mm 10 mps 758 mmHg 68%
    14:00 +2°C° 0 mm 9 mps 759 mmHg 68%
    15:00 +4°C° 0 mm 8 mps 759 mmHg 67%
    16:00 +3°C° 0 mm 7 mps 760 mmHg 72%
    17:00 +1°C° 0 mm 6 mps 760 mmHg 77%
    18:00 0°C° 0 mm 4 mps 761 mmHg 82%
    19:00 0°C° 0 mm 4 mps 760 mmHg 80%
    20:00 0°C° 0 mm 4 mps 760 mmHg 79%
    21:00 +1°C° 0 mm 4 mps 760 mmHg 77%
    22:00 0°C° 0.7 mm 5 mps 759 mmHg 83%
    23:00 -1°C° 0.7 mm 7 mps 758 mmHg 90%

    Day after tomorrow, 24 February, Monday

    Time Temperature Precipitation Wind Pressure Humidity
    00:00 -2°C° 0.7 mm 8 mps 757 mmHg 97%
    01:00 -3°C° 3.9 mm 10 mps 754 mmHg 97%
    02:00 -2°C° 3.9 mm 12 mps 752 mmHg 98%
    03:00 -2°C° 3.9 mm 14 mps 749 mmHg 99%
    04:00 0°C° 2.3 mm 12 mps 747 mmHg 99%
    05:00 +2°C° 2.3 mm 10 mps 745 mmHg 99%
    06:00 +5°C° 2.3 mm 8 mps 743 mmHg 99%
    07:00 +5°C° 0.1 mm 9 mps 742 mmHg 96%
    08:00 +4°C° 0.1 mm 11 mps 741 mmHg 94%
    09:00 +4°C° 0.1 mm 13 mps 739 mmHg 92%
    10:00 +3°C° 0 mm 14 mps 740 mmHg 89%
    11:00 +2°C° 0 mm 16 mps 740 mmHg 87%
    12:00 +1°C° 0 mm 17 mps 740 mmHg 85%
    13:00 +1°C° 0 mm 17 mps 741 mmHg 84%
    14:00 +1°C° 0 mm 17 mps 741 mmHg 83%
    15:00 +1°C° 0 mm 16 mps 742 mmHg 82%
    16:00 +1°C° 0.1 mm 16 mps 742 mmHg 82%
    17:00 0°C° 0.1 mm 16 mps 742 mmHg 83%
    18:00 0°C° 0.1 mm 16 mps 743 mmHg 83%
    19:00 0°C° 0.1 mm 15 mps 743 mmHg 84%
    20:00 0°C° 0.1 mm 14 mps 744 mmHg 85%
    21:00 0°C° 0.1 mm 13 mps 744 mmHg 86%
    22:00 -1°C° 0.3 mm 12 mps 745 mmHg 85%
    23:00 -1°C° 0.3 mm 12 mps 745 mmHg 84%

    25 February, Tuesday

    Time Temperature Precipitation Wind Pressure Humidity
    00:00 -1°C° 0.3 mm 11 mps 745 mmHg 83%
    01:00 -1°C° 0.1 mm 11 mps 745 mmHg 83%
    02:00 -2°C° 0.1 mm 10 mps 745 mmHg 83%
    03:00 -2°C° 0.1 mm 10 mps 745 mmHg 83%
    04:00 -2°C° 0 mm 10 mps 745 mmHg 82%
    05:00 -2°C° 0 mm 10 mps 745 mmHg 82%
    06:00 -2°C° 0 mm 10 mps 745 mmHg 82%
    07:00 -1°C° 0 mm 9 mps 744 mmHg 81%
    08:00 0°C° 0 mm 9 mps 744 mmHg 80%
    09:00 0°C° 0 mm 9 mps 744 mmHg 79%
    10:00 +1°C° 0.1 mm 9 mps 744 mmHg 79%
    11:00 +1°C° 0.1 mm 8 mps 744 mmHg 79%
    12:00 +2°C° 0.1 mm 8 mps 744 mmHg 79%
    13:00 +2°C° 0.3 mm 8 mps 743 mmHg 80%
    14:00 +1°C° 0.3 mm 8 mps 743 mmHg 82%
    15:00 +1°C° 0.3 mm 8 mps 743 mmHg 84%
    16:00 0°C° 0.2 mm 8 mps 743 mmHg 84%
    17:00 -1°C° 0.2 mm 8 mps 743 mmHg 84%
    18:00 -1°C° 0.2 mm 8 mps 742 mmHg 84%
    19:00 -3°C° 0.1 mm 9 mps 743 mmHg 84%
    20:00 -3°C° 0.1 mm 9 mps 743 mmHg 84%
    21:00 -3°C° 0.1 mm 9 mps 743 mmHg 84%
    22:00 -3°C° 0 mm 9 mps 744 mmHg 84%
    23:00 -4°C° 0 mm 9 mps 744 mmHg 85%

    26 February, Wednesday

    Time Temperature Precipitation Wind Pressure Humidity
    00:00 -4°C° 0 mm 9 mps 744 mmHg 85%
    01:00 -4°C° 0.1 mm 9 mps 745 mmHg 85%
    02:00 -3°C° 0.1 mm 9 mps 745 mmHg 85%
    03:00 -3°C° 0.1 mm 9 mps 746 mmHg 86%
    04:00 -3°C° 0.1 mm 9 mps 747 mmHg 84%
    05:00 -3°C° 0.1 mm 9 mps 747 mmHg 83%
    06:00 -1°C° 0.1 mm 9 mps 748 mmHg 82%
    07:00 -2°C° 0.1 mm 10 mps 749 mmHg 80%
    08:00 -2°C° 0.1 mm 10 mps 749 mmHg 79%
    09:00 -1°C° 0.1 mm 11 mps 750 mmHg 78%
    10:00 +1°C° 0.1 mm 11 mps 751 mmHg 72%
    11:00 +1°C° 0.1 mm 11 mps 752 mmHg 67%
    12:00 +2°C° 0.1 mm 11 mps 752 mmHg 62%
    13:00 +2°C° 0 mm 10 mps 753 mmHg 64%
    14:00 +2°C° 0 mm 10 mps 753 mmHg 65%
    15:00 +2°C° 0 mm 9 mps 753 mmHg 67%
    16:00 +1°C° 0 mm 8 mps 753 mmHg 73%
    17:00 +1°C° 0 mm 6 mps 753 mmHg 79%
    18:00 0°C° 0 mm 5 mps 753 mmHg 85%
    19:00 0°C° 0 mm 5 mps 752 mmHg 87%
    20:00 0°C° 0 mm 5 mps 752 mmHg 89%
    21:00 0°C° 0 mm 5 mps 752 mmHg 91%
    22:00 0°C° 0 mm 5 mps 751 mmHg 91%
    23:00 0°C° 0 mm 5 mps 750 mmHg 91%

    27 February, Thursday

    Time Temperature Precipitation Wind Pressure Humidity
    00:00 0°C° 0 mm 5 mps 749 mmHg 91%
    01:00 -1°C° 0.5 mm 7 mps 747 mmHg 93%
    02:00 -1°C° 0.5 mm 8 mps 746 mmHg 95%
    03:00 -1°C° 0.5 mm 9 mps 744 mmHg 97%
    04:00 -2°C° 1.8 mm 10 mps 743 mmHg 97%
    05:00 -2°C° 1.8 mm 10 mps 741 mmHg 98%
    06:00 -2°C° 1.8 mm 11 mps 740 mmHg 98%
    07:00 0°C° 0.7 mm 10 mps 739 mmHg 98%
    08:00 0°C° 0.7 mm 9 mps 739 mmHg 98%
    09:00 +1°C° 0.7 mm 8 mps 738 mmHg 98%
    10:00 +3°C° 0.1 mm 7 mps 739 mmHg 97%
    11:00 +5°C° 0.1 mm 7 mps 739 mmHg 96%
    12:00 +7°C° 0.1 mm 6 mps 739 mmHg 96%
    13:00 +6°C° 0.1 mm 7 mps 739 mmHg 93%
    14:00 +5°C° 0.1 mm 8 mps 740 mmHg 90%
    15:00 +3°C° 0.1 mm 10 mps 740 mmHg 87%
    16:00 +2°C° 0 mm 9 mps 741 mmHg 88%
    17:00 +2°C° 0 mm 9 mps 742 mmHg 89%
    18:00 +1°C° 0 mm 9 mps 742 mmHg 90%
    19:00 +1°C° 0 mm 8 mps 743 mmHg 91%
    20:00 0°C° 0 mm 7 mps 744 mmHg 92%
    21:00 +1°C° 0 mm 6 mps 745 mmHg 92%
    22:00 -1°C° 0 mm 6 mps 746 mmHg 92%
    23:00 -1°C° 0 mm 6 mps 746 mmHg 92%
    Show more